Regional Weather Roundup
Issued by NWS Sterling, VA

Home | Current Version | Previous Version | Graphics & Text | Print | Product List | Glossary On
Versions: 1 2 3 4 5 6 7 8 9 10 11 12 13 14 15 16 17 18 19 20 21 22 23 24 25 26 27
000
ASUS41 KLWX 200310
RWRLWX

REGIONAL WEATHER ROUNDUP
NATIONAL WEATHER SERVICE BALTIMORE MD/WASHINGTON DC
1100 PM EDT SAT APR 19 2014

Note: "FAIR" indicates few or no clouds below 12,000 feet
with no significant weather and/or obstructions to visibility.
 TC=TEMPERATURE CELSIUS

 * =Non NWS site. Station does not report precipitation (e.g. rain,
    snow, etc.), thunder, or fog.

DCZ001-MDZ009-015-VAZ040>042-051-053>054-200400-
WASHINGTON METRO

CITY           SKY/WX    TMP DP  RH WIND       PRES   REMARKS
WASHINGTON NAT CLOUDY    59  36  42 NE6       30.30R
DULLES         CLOUDY    54  28  36 N5        30.30R
ANDREWS AFB    CLOUDY    51  34  51 E6        30.30R
FT BELVOIR     CLOUDY    58  28  32 N2        30.30R
QUANTICO       CLOUDY    53  43  68 NW5       30.30R
COLLEGE PARK*  CLOUDY    54  41  62 CALM      30.30R
LEESBURG*      CLOUDY    54  32  43 N3        30.32R
MANASSAS*      CLOUDY    55  27  33 N7        30.30R
GAITHERSBURG*  CLOUDY    54  25  32 CALM      30.33R

$$

MDZ006>007-011-014-200400-
BALTIMORE METRO

CITY           SKY/WX    TMP DP  RH WIND       PRES   REMARKS
BWI AIRPORT    CLOUDY    55  29  36 CALM      30.30R
MD SCIENCE CTR   N/A     60  27  28 MISG      30.30S
MARTIN STATE   CLOUDY    54  41  62 E6        30.33R
ANNAPOLIS      CLOUDY    55  44  66 SE6       30.31R
FORT MEADE*    CLOUDY    46  32  57 E5        30.33R

$$

MDZ012-015-019>023-200400-
MARYLAND EASTERN SHORE

CITY           SKY/WX    TMP DP  RH WIND       PRES   REMARKS
OCEAN CITY     CLOUDY    49  39  68 NE6       30.28F
SALISBURY      CLOUDY    49  38  65 NE3       30.28S
BAY BRIDGE AP* CLOUDY    54  39  58 SE3       30.31R
CAMBRIDGE*     CLOUDY    52  32  46 CALM      30.29S
EASTON*        CLOUDY    53  37  56 CALM      30.34R

$$

MDZ017>025-200400-
SOUTHERN MARYLAND

CITY           SKY/WX    TMP DP  RH WIND       PRES   REMARKS
PATUXENT RIVER CLOUDY    49  37  63 CALM      30.29R
ST INIGOES     CLOUDY    53  33  46 E6        30.29R
LEONARDTOWN*   CLOUDY    52  34  50 CALM      30.31R

$$

MDZ003>005-200400-
NORTH CENTRAL MARYLAND

CITY           SKY/WX    TMP DP  RH WIND       PRES   REMARKS
FREDERICK*     CLOUDY    46  36  66 N3        30.34R
HAGERSTOWN APT MOCLDY    53  25  33 NE8       30.32R
WESTMINSTER*   CLOUDY    52  27  37 N5        30.32R

$$

MDZ501>502-200400-
WESTERN MARYLAND

CITY           SKY/WX    TMP DP  RH WIND       PRES   REMARKS
OAKLAND*       MOCLDY    46   5  18 E9        30.30S
CUMBERLAND*    MOCLDY    57  25  28 NW3       30.34S

$$

VAZ025>031-200400-
SHENANDOAH VALLEY

CITY           SKY/WX    TMP DP  RH WIND       PRES   REMARKS
WINCHESTER*    MOCLDY    46  32  57 CALM      30.30S
STAUNTON*      CLOUDY    51  36  57 CALM      30.30R

$$

WVZ021-048>050-054>055-200400-
EASTERN WEST VIRGINIA PANHANDLE

CITY           SKY/WX    TMP DP  RH WIND       PRES   REMARKS
MARTINSBURG    MOCLDY    49  28  44 CALM      30.31R
PETERSBURG*    MOCLDY    50  42  73 W5        30.31R

$$

VAZ036>039-050-200400-
CENTRAL FOOTHILLS

CITY           SKY/WX    TMP DP  RH WIND       PRES   REMARKS
CHARLOTTESVILL CLOUDY    55  39  54 NE3       30.29R
CULPEPER*      CLOUDY    55  27  33 CALM      30.30R

$$

VAZ055>057-200400-
NORTH AND CENTRAL PIEDMONT

CITY           SKY/WX    TMP DP  RH WIND       PRES   REMARKS
FREDERICKSBRG* CLOUDY    52  45  76 CALM      30.28R
STAFFORD*      CLOUDY    52  42  68 CALM      30.33R

$$

NCZ024-NYZ072-PAZ021-071-VAZ022-071-200400-
OTHER REGIONAL OBSERVATIONS

CITY           SKY/WX    TMP DP  RH WIND       PRES   REMARKS
NEW YORK CITY  MOCLDY    56  22  26 N12G18    30.37R
PHILADELPHIA   CLOUDY    54  36  50 CALM      30.33R
PITTSBURGH     MOCLDY    53  28  38 N10       30.29S
ROANOKE        CLOUDY    54  41  61 CALM      30.28S
RICHMOND       CLOUDY    55  36  48 NE5       30.26F
RALEIGH        CLOUDY    53  43  68 NE10      30.23R

$$

ANZ530>537-200400-
MARINE OBSERVATIONS

STATION/POSITION TIME  TEMP    WIND        PRES
                       AIR SEA DIR/SP/G
                 (UTC) (F)     (DEG/KT/KT) (MB)
THOMAS PT LIGHT  0300   54 54  100/  5/  5 1026.8R
BALT KEY BRIDGE  0300   56     110/ 12/ 13 1026.0R
COVE POINT       0300   54     100/ 11/ 12 1025.5R
LEWISETTA        0300   54 54   80/  7/  9 1025.0R
SOLOMONS ISLAND  0300      55                N/A
PINEY POINT      0300          100/  9/ 11   N/A

$$




USA.gov is the U.S. government's official web portal to all federal, state and local government web resources and services.